Location: İstanbul
(41.0082°N, 28.9784°E)
Time: 07:04:42
(UTC+03:00)

DOVE 4 - Pass Details

Date: 30 April 2024
Orbit: 582 x 778 km, 97.7° (Epoch: 27 May)

Event Time Altitude Azimuth Distance (km) Brightness Sun altitude
Rises 21:40:46 0° 29° (NNE) 2,981 ? -17.2°
Reaches altitude 10° 21:43:28 10° 46° (NE) 2,102 ? -17.6°
Enters shadow 21:45:58 19° 78° (ENE) 1,602 ? -18.0°
